Weather Roundup
Issued by NWS

Home | Current Version | Previous Version | Text Only | Print | Product List | Glossary On
Versions: 1 2 3 4 5 6 7 8 9 10 11 12 13 14 15 16 17 18 19 20 21 22 23 24 25 26 27 28 29 30 31 32 33 34 35 36 37 38 39 40 41 42 43 44 45 46 47 48 49 50
416
NZUS93 KARX 011610
HRRWXR

CURRENT HOURLY OBSERVATIONS ACROSS
MUCH OF THE UPPER MISSISSIPPI VALLEY
NATIONAL WEATHER SERVICE LA CROSSE WI
1100 AM CDT SUN MAY 01 2016


...SOUTHEAST MINNESOTA...


CITY           SKY/WX    TMP DP  RH WIND       PRES   REMARKS
ROCHESTER      CLOUDY    49  40  71 NE16      30.10S
ROCHESTER/MAYO CLOUDY    49  38  66 N6        30.11S
WINONA         CLOUDY    48  37  66 NE5       30.12S
AUSTIN         CLOUDY    46  36  66 NE9G18    30.09S
ALBERT LEA     CLOUDY    46  39  76 NE10G16   30.10S
DODGE CENTER   CLOUDY    48  39  71 NE15G22   30.10S
PRESTON        CLOUDY    45  37  73 NE12G17   30.09S
OWATONNA       CLOUDY    48  39  71 NE10      30.12F
FARIBAULT      CLOUDY    52  39  62 NE10      30.13F
$$

...ELSEWHERE IN MINNESOTA...


CITY           SKY/WX    TMP DP  RH WIND       PRES   REMARKS
MINNEAPOLIS    PTSUNNY   53  37  54 N14       30.16F
INTNL FALLS    SUNNY     50  30  46 N10       30.28F
DULUTH         MOSUNNY   47  35  63 E10       30.23F
RED WING       CLOUDY    55  34  44 NE7       30.12S
REDWOOD FALLS  SUNNY     51  34  52 NE10G17   30.18R
MANKATO        SUNNY     48  37  66 NE14      30.14S
WORTHINGTON    CLOUDY    43  38  82 N20       30.15S
FAIRMONT       CLOUDY    45  36  70 N13       30.12S
$$

...SOUTHWEST WISCONSIN...


CITY           SKY/WX    TMP DP  RH WIND       PRES   REMARKS
LA CROSSE      CLOUDY    53  37  54 E8        30.09S
PRAIRIE DU CHI CLOUDY    50  37  61 E13G20    30.05S
BOSCOBEL       CLOUDY    52  39  61 NE6       30.06S
LONE ROCK      CLOUDY    49  39  68 NE10      30.07R
PLATTEVILLE    CLOUDY    49  43  78 NE18G25   30.02F
FORT MC COY    CLOUDY    50  37  61 NE13      30.10S
CAMP DOUGLAS   CLOUDY    50  43  76 NE13G20   30.09S
MAUSTON-NEW LI CLOUDY    49  38  65 NE10      30.08S
VIROQUA        PTSUNNY   49  38  66 NE15      30.07S
WIS DELLS      CLOUDY    46  40  80 NE12      30.07S
$$

...ELSEWHERE IN WISCONSIN...


CITY           SKY/WX    TMP DP  RH WIND       PRES   REMARKS
MILWAUKEE      CLOUDY    46  40  79 N15G28    30.04R
MADISON        CLOUDY    46  40  79 NE15      30.06R
GREEN BAY      CLOUDY    48  37  65 NE18      30.11S
EAU CLAIRE     SUNNY     55  35  47 NE13      30.12F
BLACK RVR FLS  CLOUDY    51  35  55 NE9       30.11S
MEDFORD        SUNNY     53  32  44 NE12      30.11F
WAUSAU         CLOUDY    53  29  39 E8        30.10F
WIS RAPIDS     CLOUDY    50  33  52 NE8       30.12S
MARSHFIELD     CLOUDY    54  33  45 NE8       30.10F
RICE LAKE      SUNNY     52  36  55 N10       30.17S
$$

...NORTHEAST IOWA...


CITY           SKY/WX    TMP DP  RH WIND       PRES   REMARKS
WATERLOO       CLOUDY    46  41  82 NE13      30.04S
DUBUQUE        CLOUDY    45  43  93 NE16      30.02S
DECORAH        CLOUDY    50  39  66 E14G21    30.05S
MASON CITY     CLOUDY    45  41  86 NE16      30.10R
CHARLES CITY   CLOUDY    46  43  87 NE15      30.07S
OELWEIN        CLOUDY    46  45  93 NE15G22   30.04S
$$

...ELSEWHERE IN IOWA...


CITY           SKY/WX    TMP DP  RH WIND       PRES   REMARKS
DES MOINES     DRIZZLE   46  43  89 NE13      30.02R FOG
IOWA CITY      CLOUDY    46  44  93 NE15      30.02R
FORT DODGE     CLOUDY    45  39  81 NE12      30.08R
MARSHALLTOWN   CLOUDY    45  43  93 NE17      30.02S
CEDAR RAPIDS   CLOUDY    46  45  96 E13       30.00R
$$

...NORTHERN ILLINOIS...


CITY           SKY/WX    TMP DP  RH WIND       PRES   REMARKS
CHICAGO-OHARE  FOG       45  44  97 NE16      30.00S VSB 1/4
CHICAGO-MIDWAY CLOUDY    46  44  93 N12       30.00S FOG
MOLINE         CLOUDY    49  45  86 E14       29.98R FOG
ROCKFORD       CLOUDY    48  44  86 NE14      30.03F
PEORIA         CLOUDY    52  48  86 E7        29.97R FOG
$$

NOTE: "FAIR" INDICATES FEW OR NO CLOUDS BELOW 12,000 FEET WITH NO
SIGNIFICANT WEATHER AND/OR OBSTRUCTIONS TO VISIBILITY. WIND
SPEEDS ARE IN MILES-PER-HOUR.




USA.gov is the U.S. government's official web portal to all federal, state and local government web resources and services.